Year,Month,Day,Hour,Minute,Value (Times are PST for temperature in C)
2009,07,22,00,00,22.00
2009,07,22,00,01,22.00
2009,07,22,00,02,21.90
2009,07,22,00,03,21.90
2009,07,22,00,04,21.90
2009,07,22,00,05,21.90
2009,07,22,00,06,21.90
2009,07,22,00,07,21.90
2009,07,22,00,08,21.90
2009,07,22,00,09,21.90
2009,07,22,00,10,21.90
2009,07,22,00,11,21.90
2009,07,22,00,12,22.00
2009,07,22,00,13,22.00
2009,07,22,00,14,22.00
2009,07,22,00,15,22.00
2009,07,22,00,16,22.00
2009,07,22,00,17,22.00
2009,07,22,00,18,22.10
2009,07,22,00,19,22.10
2009,07,22,00,20,22.10
2009,07,22,00,21,22.10
2009,07,22,00,22,22.10
2009,07,22,00,23,22.10
2009,07,22,00,24,22.10
2009,07,22,00,25,22.10
2009,07,22,00,26,22.10
2009,07,22,00,27,22.10
2009,07,22,00,28,22.10
2009,07,22,00,29,22.10
2009,07,22,00,30,22.10
2009,07,22,00,31,22.00
2009,07,22,00,32,22.00
2009,07,22,00,33,21.90
2009,07,22,00,34,21.90
2009,07,22,00,35,21.80
2009,07,22,00,36,21.80
2009,07,22,00,37,21.80
2009,07,22,00,38,21.80
2009,07,22,00,39,21.80
2009,07,22,00,40,21.80
2009,07,22,00,41,21.80
2009,07,22,00,42,21.80
2009,07,22,00,43,21.80
2009,07,22,00,44,21.80
2009,07,22,00,45,21.80
2009,07,22,00,46,21.80
2009,07,22,00,47,21.90
2009,07,22,00,48,21.90
2009,07,22,00,49,21.90
2009,07,22,00,50,21.90
2009,07,22,00,51,21.90
2009,07,22,00,52,22.00
2009,07,22,00,53,22.00
2009,07,22,00,54,22.00
2009,07,22,00,55,22.00
2009,07,22,00,56,22.10
2009,07,22,00,57,22.10
2009,07,22,00,58,22.10
2009,07,22,00,59,22.10
2009,07,22,01,00,22.10
2009,07,22,01,01,22.10
2009,07,22,01,02,22.10
2009,07,22,01,03,22.20
2009,07,22,01,04,22.20
2009,07,22,01,05,22.10
2009,07,22,01,06,22.10
2009,07,22,01,07,22.10
2009,07,22,01,08,22.10
2009,07,22,01,09,22.10
2009,07,22,01,10,22.10
2009,07,22,01,11,22.10
2009,07,22,01,12,22.10
2009,07,22,01,13,22.10
2009,07,22,01,14,22.10
2009,07,22,01,15,22.10
2009,07,22,01,16,22.10
2009,07,22,01,17,22.10
2009,07,22,01,18,22.00
2009,07,22,01,19,22.00
2009,07,22,01,20,22.00
2009,07,22,01,21,21.90
2009,07,22,01,22,21.90
2009,07,22,01,23,21.90
2009,07,22,01,24,21.90
2009,07,22,01,25,21.90
2009,07,22,01,26,21.90
2009,07,22,01,27,21.80
2009,07,22,01,28,21.80
2009,07,22,01,29,21.80
2009,07,22,01,30,21.80
2009,07,22,01,31,21.80
2009,07,22,01,32,21.80
2009,07,22,01,33,21.70
2009,07,22,01,34,21.70
2009,07,22,01,35,21.70
2009,07,22,01,36,21.70
2009,07,22,01,37,21.60
2009,07,22,01,38,21.60
2009,07,22,01,39,21.60
2009,07,22,01,40,21.60
2009,07,22,01,41,21.50
2009,07,22,01,42,21.50
2009,07,22,01,43,21.50
2009,07,22,01,44,21.50
2009,07,22,01,45,21.50
2009,07,22,01,46,21.50
2009,07,22,01,47,21.50
2009,07,22,01,48,21.50
2009,07,22,01,49,21.40
2009,07,22,01,50,21.40
2009,07,22,01,51,21.40
2009,07,22,01,52,21.40
2009,07,22,01,53,21.40
2009,07,22,01,54,21.40
2009,07,22,01,55,21.40
2009,07,22,01,56,21.40
2009,07,22,01,57,21.40
2009,07,22,01,58,21.40
2009,07,22,01,59,21.40
2009,07,22,02,00,21.40
2009,07,22,02,01,21.40
2009,07,22,02,02,21.40
2009,07,22,02,03,21.40
2009,07,22,02,04,21.40
2009,07,22,02,05,21.40
2009,07,22,02,06,21.40
2009,07,22,02,07,21.40
2009,07,22,02,08,21.40
2009,07,22,02,09,21.40
2009,07,22,02,10,21.40
2009,07,22,02,11,21.40
2009,07,22,02,12,21.30
2009,07,22,02,13,21.30
2009,07,22,02,14,21.30
2009,07,22,02,15,21.30
2009,07,22,02,16,21.30
2009,07,22,02,17,21.20
2009,07,22,02,18,21.10
2009,07,22,02,19,21.00
2009,07,22,02,20,20.90
2009,07,22,02,21,20.80
2009,07,22,02,22,20.80
2009,07,22,02,23,20.70
2009,07,22,02,24,20.60
2009,07,22,02,25,20.50
2009,07,22,02,26,20.30
2009,07,22,02,27,20.30
2009,07,22,02,28,20.20
2009,07,22,02,29,20.10
2009,07,22,02,30,20.00
2009,07,22,02,31,19.90
2009,07,22,02,32,19.90
2009,07,22,02,33,19.80
2009,07,22,02,34,19.80
2009,07,22,02,35,19.80
2009,07,22,02,36,19.70
2009,07,22,02,37,19.70
2009,07,22,02,38,19.70
2009,07,22,02,39,19.70
2009,07,22,02,40,19.70
2009,07,22,02,41,19.60
2009,07,22,02,42,19.70
2009,07,22,02,43,19.60
2009,07,22,02,44,19.60
2009,07,22,02,45,19.60
2009,07,22,02,46,19.60
2009,07,22,02,47,19.60
2009,07,22,02,48,19.70
2009,07,22,02,49,19.70
2009,07,22,02,50,19.70
2009,07,22,02,51,19.70
2009,07,22,02,52,19.70
2009,07,22,02,53,19.70
2009,07,22,02,54,19.70
2009,07,22,02,55,19.70
2009,07,22,02,56,19.80
2009,07,22,02,57,19.80
2009,07,22,02,58,19.80
2009,07,22,02,59,19.80
2009,07,22,03,00,19.80
2009,07,22,03,01,19.70
2009,07,22,03,02,19.70
2009,07,22,03,03,19.60
2009,07,22,03,04,19.60
2009,07,22,03,05,19.50
2009,07,22,03,06,19.50
2009,07,22,03,07,19.40
2009,07,22,03,08,19.40
2009,07,22,03,09,19.40
2009,07,22,03,10,19.40
2009,07,22,03,11,19.30
2009,07,22,03,12,19.30
2009,07,22,03,13,19.30
2009,07,22,03,14,19.30
2009,07,22,03,15,19.30
2009,07,22,03,16,19.30
2009,07,22,03,17,19.20
2009,07,22,03,18,19.20
2009,07,22,03,19,19.20
2009,07,22,03,20,19.20
2009,07,22,03,21,19.20
2009,07,22,03,22,19.20
2009,07,22,03,23,19.20
2009,07,22,03,24,19.20
2009,07,22,03,25,19.20
2009,07,22,03,26,19.10
2009,07,22,03,27,19.10
2009,07,22,03,28,19.10
2009,07,22,03,29,19.10
2009,07,22,03,30,19.10
2009,07,22,03,31,19.10
2009,07,22,03,32,19.10
2009,07,22,03,33,19.00
2009,07,22,03,34,19.00
2009,07,22,03,35,18.90
2009,07,22,03,36,18.90
2009,07,22,03,37,18.90
2009,07,22,03,38,18.80
2009,07,22,03,39,18.80
2009,07,22,03,40,18.70
2009,07,22,03,41,18.70
2009,07,22,03,42,18.70
2009,07,22,03,43,18.70
2009,07,22,03,44,18.60
2009,07,22,03,45,18.60
2009,07,22,03,46,18.60
2009,07,22,03,47,18.60
2009,07,22,03,48,18.60
2009,07,22,03,49,18.50
2009,07,22,03,50,18.50
2009,07,22,03,51,18.40
2009,07,22,03,52,18.40
2009,07,22,03,53,18.40
2009,07,22,03,54,18.40
2009,07,22,03,55,18.40
2009,07,22,03,56,18.40
2009,07,22,03,57,18.40
2009,07,22,03,58,18.30
2009,07,22,03,59,18.30
2009,07,22,04,00,18.30
2009,07,22,04,01,18.30
2009,07,22,04,02,18.40
2009,07,22,04,03,18.40
2009,07,22,04,04,18.40
2009,07,22,04,05,18.40
2009,07,22,04,06,18.50
2009,07,22,04,07,18.50
2009,07,22,04,08,18.60
2009,07,22,04,09,18.60
2009,07,22,04,10,18.60
2009,07,22,04,11,18.60
2009,07,22,04,12,18.60
2009,07,22,04,13,18.50
2009,07,22,04,14,18.50
2009,07,22,04,15,18.60
2009,07,22,04,16,18.60
2009,07,22,04,17,18.60
2009,07,22,04,18,18.60
2009,07,22,04,19,18.60
2009,07,22,04,20,18.50
2009,07,22,04,21,18.40
2009,07,22,04,22,18.40
2009,07,22,04,23,18.40
2009,07,22,04,24,18.30
2009,07,22,04,25,18.30
2009,07,22,04,26,18.30
2009,07,22,04,27,18.30
2009,07,22,04,28,18.20
2009,07,22,04,29,18.20
2009,07,22,04,30,18.20
2009,07,22,04,31,18.20
2009,07,22,04,32,18.20
2009,07,22,04,33,18.20
2009,07,22,04,34,18.10
2009,07,22,04,35,18.10
2009,07,22,04,36,18.10
2009,07,22,04,37,18.10
2009,07,22,04,38,18.10
2009,07,22,04,39,18.10
2009,07,22,04,40,18.00
2009,07,22,04,41,18.00
2009,07,22,04,42,18.00
2009,07,22,04,43,17.90
2009,07,22,04,44,17.90
2009,07,22,04,45,17.90
2009,07,22,04,46,17.90
2009,07,22,04,47,17.90
2009,07,22,04,48,17.90
2009,07,22,04,49,17.80
2009,07,22,04,50,17.80
2009,07,22,04,51,17.80
2009,07,22,04,52,17.80
2009,07,22,04,53,17.80
2009,07,22,04,54,17.80
2009,07,22,04,55,17.80
2009,07,22,04,56,17.80
2009,07,22,04,57,17.80
2009,07,22,04,58,17.80
2009,07,22,04,59,17.70
2009,07,22,05,00,17.70
2009,07,22,05,01,17.70
2009,07,22,05,02,17.70
2009,07,22,05,03,17.70
2009,07,22,05,04,17.70
2009,07,22,05,05,17.70
2009,07,22,05,06,17.70
2009,07,22,05,07,17.60
2009,07,22,05,08,17.60
2009,07,22,05,09,17.60
2009,07,22,05,10,17.60
2009,07,22,05,11,17.60
2009,07,22,05,12,17.60
2009,07,22,05,13,17.60
2009,07,22,05,14,17.60
2009,07,22,05,15,17.60
2009,07,22,05,16,17.50
2009,07,22,05,17,17.50
2009,07,22,05,18,17.50
2009,07,22,05,19,17.40
2009,07,22,05,20,17.40
2009,07,22,05,21,17.40
2009,07,22,05,22,17.40
2009,07,22,05,23,17.30
2009,07,22,05,24,17.30
2009,07,22,05,25,17.20
2009,07,22,05,26,17.20
2009,07,22,05,27,17.10
2009,07,22,05,28,17.10
2009,07,22,05,29,17.00
2009,07,22,05,30,17.00
2009,07,22,05,31,17.00
2009,07,22,05,32,17.00
2009,07,22,05,33,17.00
2009,07,22,05,34,17.00
2009,07,22,05,35,17.10
2009,07,22,05,36,17.10
2009,07,22,05,37,17.10
2009,07,22,05,38,17.20
2009,07,22,05,39,17.20
2009,07,22,05,40,17.30
2009,07,22,05,41,17.30
2009,07,22,05,42,17.30
2009,07,22,05,43,17.40
2009,07,22,05,44,17.40
2009,07,22,05,45,17.40
2009,07,22,05,46,17.40
2009,07,22,05,47,17.40
2009,07,22,05,48,17.40
2009,07,22,05,49,17.40
2009,07,22,05,50,17.40
2009,07,22,05,51,17.40
2009,07,22,05,52,17.40
2009,07,22,05,53,17.40
2009,07,22,05,54,17.40
2009,07,22,05,55,17.40
2009,07,22,05,56,17.30
2009,07,22,05,57,17.40
2009,07,22,05,58,17.40
2009,07,22,05,59,17.40
2009,07,22,06,00,17.40
2009,07,22,06,01,17.40
2009,07,22,06,02,17.40
2009,07,22,06,03,17.40
2009,07,22,06,04,17.40
2009,07,22,06,05,17.40
2009,07,22,06,06,17.40
2009,07,22,06,07,17.40
2009,07,22,06,08,17.40
2009,07,22,06,09,17.50
2009,07,22,06,10,17.50
2009,07,22,06,11,17.60
2009,07,22,06,12,17.60
2009,07,22,06,13,17.60
2009,07,22,06,14,17.70
2009,07,22,06,15,17.70
2009,07,22,06,16,17.70
2009,07,22,06,17,17.80
2009,07,22,06,18,17.80
2009,07,22,06,19,17.90
2009,07,22,06,20,17.90
2009,07,22,06,21,17.90
2009,07,22,06,22,17.90
2009,07,22,06,23,17.90
2009,07,22,06,24,17.90
2009,07,22,06,25,17.80
2009,07,22,06,26,17.80
2009,07,22,06,27,17.80
2009,07,22,06,28,17.80
2009,07,22,06,29,17.80
2009,07,22,06,30,17.80
2009,07,22,06,31,17.80
2009,07,22,06,32,17.80
2009,07,22,06,33,17.80
2009,07,22,06,34,17.90
2009,07,22,06,35,17.90
2009,07,22,06,36,17.90
2009,07,22,06,37,17.90
2009,07,22,06,38,17.90
2009,07,22,06,39,17.90
2009,07,22,06,40,18.00
2009,07,22,06,41,18.00
2009,07,22,06,42,18.00
2009,07,22,06,43,18.10
2009,07,22,06,44,18.10
2009,07,22,06,45,18.10
2009,07,22,06,46,18.20
2009,07,22,06,47,18.20
2009,07,22,06,48,18.20
2009,07,22,06,49,18.20
2009,07,22,06,50,18.20
2009,07,22,06,51,18.10
2009,07,22,06,52,18.10
2009,07,22,06,53,18.10
2009,07,22,06,54,18.10
2009,07,22,06,55,18.10
2009,07,22,06,56,18.10
2009,07,22,06,57,18.00
2009,07,22,06,58,18.10
2009,07,22,06,59,18.10
2009,07,22,07,00,18.10
2009,07,22,07,01,18.10
2009,07,22,07,02,18.10
2009,07,22,07,03,18.10
2009,07,22,07,04,18.10
2009,07,22,07,05,18.10
2009,07,22,07,06,18.00
2009,07,22,07,07,18.00
2009,07,22,07,08,18.00
2009,07,22,07,09,18.00
2009,07,22,07,10,18.00
2009,07,22,07,11,18.10
2009,07,22,07,12,18.20
2009,07,22,07,13,18.20
2009,07,22,07,14,18.30
2009,07,22,07,15,18.40
2009,07,22,07,16,18.40
2009,07,22,07,17,18.40
2009,07,22,07,18,18.40
2009,07,22,07,19,18.40
2009,07,22,07,20,18.30
2009,07,22,07,21,18.30
2009,07,22,07,22,18.30
2009,07,22,07,23,18.30
2009,07,22,07,24,18.30
2009,07,22,07,25,18.40
2009,07,22,07,26,18.40
2009,07,22,07,27,18.40
2009,07,22,07,28,18.40
2009,07,22,07,29,18.50
2009,07,22,07,30,18.60
2009,07,22,07,31,18.60
2009,07,22,07,32,18.60
2009,07,22,07,33,18.60
2009,07,22,07,34,18.60
2009,07,22,07,35,18.70
2009,07,22,07,36,18.70
2009,07,22,07,37,18.70
2009,07,22,07,38,18.80
2009,07,22,07,39,18.80
2009,07,22,07,40,18.80
2009,07,22,07,41,18.80
2009,07,22,07,42,18.80
2009,07,22,07,43,18.80
2009,07,22,07,44,18.80
2009,07,22,07,45,18.90
2009,07,22,07,46,18.90
2009,07,22,07,47,18.90
2009,07,22,07,48,18.90
2009,07,22,07,49,19.00
2009,07,22,07,50,19.00
2009,07,22,07,51,19.10
2009,07,22,07,52,19.10
2009,07,22,07,53,19.10
2009,07,22,07,54,19.20
2009,07,22,07,55,19.20
2009,07,22,07,56,19.20
2009,07,22,07,57,19.20
2009,07,22,07,58,19.30
2009,07,22,07,59,19.30
2009,07,22,08,00,19.30
2009,07,22,08,01,19.30
2009,07,22,08,02,19.30
2009,07,22,08,03,19.30
2009,07,22,08,04,19.30
2009,07,22,08,05,19.30
2009,07,22,08,06,19.30
2009,07,22,08,07,19.40
2009,07,22,08,08,19.40
2009,07,22,08,09,19.50
2009,07,22,08,10,19.50
2009,07,22,08,11,19.60
2009,07,22,08,12,19.70
2009,07,22,08,13,19.70
2009,07,22,08,14,19.80
2009,07,22,08,15,19.90
2009,07,22,08,16,19.90
2009,07,22,08,17,20.00
2009,07,22,08,18,20.10
2009,07,22,08,19,20.10
2009,07,22,08,20,20.20
2009,07,22,08,21,20.20
2009,07,22,08,22,20.30
2009,07,22,08,23,20.40
2009,07,22,08,24,20.40
2009,07,22,08,25,20.50
2009,07,22,08,26,20.50
2009,07,22,08,27,20.60
2009,07,22,08,28,20.60
2009,07,22,08,29,20.60
2009,07,22,08,30,20.60
2009,07,22,08,31,20.70
2009,07,22,08,32,20.70
2009,07,22,08,33,20.70
2009,07,22,08,34,20.80
2009,07,22,08,35,20.80
2009,07,22,08,36,20.80
2009,07,22,08,37,20.70
2009,07,22,08,38,20.60
2009,07,22,08,39,20.50
2009,07,22,08,40,20.40
2009,07,22,08,41,20.30
2009,07,22,08,42,20.30
2009,07,22,08,43,20.30
2009,07,22,08,44,20.40
2009,07,22,08,45,20.40
2009,07,22,08,46,20.40
2009,07,22,08,47,20.50
2009,07,22,08,48,20.50
2009,07,22,08,49,20.40
2009,07,22,08,50,20.40
2009,07,22,08,51,20.40
2009,07,22,08,52,20.40
2009,07,22,08,53,20.40
2009,07,22,08,54,20.50
2009,07,22,08,55,20.60
2009,07,22,08,56,20.80
2009,07,22,08,57,20.90
2009,07,22,08,58,21.00
2009,07,22,08,59,21.10
2009,07,22,09,00,21.00
2009,07,22,09,01,20.80
2009,07,22,09,02,20.70
2009,07,22,09,03,20.60
2009,07,22,09,04,20.40
2009,07,22,09,05,20.40
2009,07,22,09,06,20.40
2009,07,22,09,07,20.40
2009,07,22,09,08,20.50
2009,07,22,09,09,20.50
2009,07,22,09,10,20.60
2009,07,22,09,11,20.60
2009,07,22,09,12,20.70
2009,07,22,09,13,20.70
2009,07,22,09,14,20.70
2009,07,22,09,15,20.80
2009,07,22,09,16,20.80
2009,07,22,09,17,20.80
2009,07,22,09,18,20.90
2009,07,22,09,19,20.90
2009,07,22,09,20,20.90
2009,07,22,09,21,20.90
2009,07,22,09,22,20.90
2009,07,22,09,23,21.00
2009,07,22,09,24,20.90
2009,07,22,09,25,20.90
2009,07,22,09,26,21.00
2009,07,22,09,27,21.10
2009,07,22,09,28,21.00
2009,07,22,09,29,21.00
2009,07,22,09,30,20.90
2009,07,22,09,31,20.90
2009,07,22,09,32,20.90
2009,07,22,09,33,20.80
2009,07,22,09,34,20.80
2009,07,22,09,35,20.70
2009,07,22,09,36,20.60
2009,07,22,09,37,20.60
2009,07,22,09,38,20.60
2009,07,22,09,39,20.60
2009,07,22,09,40,20.60
2009,07,22,09,41,20.60
2009,07,22,09,42,20.60
2009,07,22,09,43,20.60
2009,07,22,09,44,20.60
2009,07,22,09,45,20.40
2009,07,22,09,46,20.40
2009,07,22,09,47,20.50
2009,07,22,09,48,20.70
2009,07,22,09,49,20.80
2009,07,22,09,50,21.00
2009,07,22,09,51,21.10
2009,07,22,09,52,21.20
2009,07,22,09,53,21.30
2009,07,22,09,54,21.40
2009,07,22,09,55,21.30
2009,07,22,09,56,21.10
2009,07,22,09,57,20.80
2009,07,22,09,58,20.70
2009,07,22,09,59,20.80
2009,07,22,10,00,20.80
2009,07,22,10,01,20.90
2009,07,22,10,02,20.90
2009,07,22,10,03,20.90
2009,07,22,10,04,20.90
2009,07,22,10,05,21.00
2009,07,22,10,06,21.10
2009,07,22,10,07,21.20
2009,07,22,10,08,21.20
2009,07,22,10,09,21.20
2009,07,22,10,10,21.10
2009,07,22,10,11,21.10
2009,07,22,10,12,21.10
2009,07,22,10,13,21.10
2009,07,22,10,14,21.30
2009,07,22,10,15,21.40
2009,07,22,10,16,21.50
2009,07,22,10,17,21.60
2009,07,22,10,18,21.40
2009,07,22,10,19,21.40
2009,07,22,10,20,21.30
2009,07,22,10,21,21.20
2009,07,22,10,22,21.00
2009,07,22,10,23,20.90
2009,07,22,10,24,20.90
2009,07,22,10,25,20.90
2009,07,22,10,26,21.00
2009,07,22,10,27,20.90
2009,07,22,10,28,20.90
2009,07,22,10,29,20.90
2009,07,22,10,30,21.10
2009,07,22,10,31,21.20
2009,07,22,10,32,21.30
2009,07,22,10,33,21.20
2009,07,22,10,34,21.30
2009,07,22,10,35,21.40
2009,07,22,10,36,21.50
2009,07,22,10,37,21.40
2009,07,22,10,38,21.30
2009,07,22,10,39,21.30
2009,07,22,10,40,21.20
2009,07,22,10,41,21.20
2009,07,22,10,42,21.10
2009,07,22,10,43,21.10
2009,07,22,10,44,21.20
2009,07,22,10,45,21.20
2009,07,22,10,46,21.30
2009,07,22,10,47,21.30
2009,07,22,10,48,21.30
2009,07,22,10,49,21.20
2009,07,22,10,50,21.20
2009,07,22,10,51,21.30
2009,07,22,10,52,21.30
2009,07,22,10,53,21.20
2009,07,22,10,54,21.30
2009,07,22,10,55,21.40
2009,07,22,10,56,21.40
2009,07,22,10,57,21.30
2009,07,22,10,58,21.20
2009,07,22,10,59,21.10
2009,07,22,11,00,21.00
2009,07,22,11,01,21.00
2009,07,22,11,02,21.10
2009,07,22,11,03,21.20
2009,07,22,11,04,21.30
2009,07,22,11,05,21.40
2009,07,22,11,06,21.40
2009,07,22,11,07,21.50
2009,07,22,11,08,21.50
2009,07,22,11,09,21.40
2009,07,22,11,10,21.30
2009,07,22,11,11,21.20
2009,07,22,11,12,21.10
2009,07,22,11,13,21.20
2009,07,22,11,14,21.20
2009,07,22,11,15,21.30
2009,07,22,11,16,21.30
2009,07,22,11,17,21.40
2009,07,22,11,18,21.50
2009,07,22,11,19,21.60
2009,07,22,11,20,21.60
2009,07,22,11,21,21.70
2009,07,22,11,22,21.90
2009,07,22,11,23,22.00
2009,07,22,11,24,22.00
2009,07,22,11,25,22.10
2009,07,22,11,26,22.30
2009,07,22,11,27,22.40
2009,07,22,11,28,22.30
2009,07,22,11,29,22.30
2009,07,22,11,30,22.20
2009,07,22,11,31,22.10
2009,07,22,11,32,21.90
2009,07,22,11,33,21.80
2009,07,22,11,34,21.90
2009,07,22,11,35,21.80
2009,07,22,11,36,21.60
2009,07,22,11,37,21.40
2009,07,22,11,38,21.30
2009,07,22,11,39,21.20
2009,07,22,11,40,21.20
2009,07,22,11,41,21.20
2009,07,22,11,42,21.20
2009,07,22,11,43,21.20
2009,07,22,11,44,21.30
2009,07,22,11,45,21.30
2009,07,22,11,46,21.40
2009,07,22,11,47,21.40
2009,07,22,11,48,21.40
2009,07,22,11,49,21.30
2009,07,22,11,50,21.30
2009,07,22,11,51,21.30
2009,07,22,11,52,21.20
2009,07,22,11,53,21.20
2009,07,22,11,54,21.20
2009,07,22,11,55,21.30
2009,07,22,11,56,21.30
2009,07,22,11,57,21.30
2009,07,22,11,58,21.30
2009,07,22,11,59,21.20
2009,07,22,12,00,21.30
2009,07,22,12,01,21.30
2009,07,22,12,02,21.40
2009,07,22,12,03,21.60
2009,07,22,12,04,21.70
2009,07,22,12,05,21.90
2009,07,22,12,06,21.90
2009,07,22,12,07,22.00
2009,07,22,12,08,21.80
2009,07,22,12,09,21.70
2009,07,22,12,10,21.60
2009,07,22,12,11,21.50
2009,07,22,12,12,21.50
2009,07,22,12,13,21.40
2009,07,22,12,14,21.40
2009,07,22,12,15,21.30
2009,07,22,12,16,21.30
2009,07,22,12,17,21.40
2009,07,22,12,18,21.50
2009,07,22,12,19,21.60
2009,07,22,12,20,21.70
2009,07,22,12,21,21.80
2009,07,22,12,22,21.70
2009,07,22,12,23,21.80
2009,07,22,12,24,21.90
2009,07,22,12,25,21.90
2009,07,22,12,26,21.90
2009,07,22,12,27,21.90
2009,07,22,12,28,21.90
2009,07,22,12,29,21.90
2009,07,22,12,30,21.90
2009,07,22,12,31,21.90
2009,07,22,12,32,21.90
2009,07,22,12,33,21.80
2009,07,22,12,34,21.80
2009,07,22,12,35,21.90
2009,07,22,12,36,22.00
2009,07,22,12,37,22.10
2009,07,22,12,38,22.20
2009,07,22,12,39,22.30
2009,07,22,12,40,22.20
2009,07,22,12,41,22.20
2009,07,22,12,42,22.20
2009,07,22,12,43,22.20
2009,07,22,12,44,22.30
2009,07,22,12,45,22.40
2009,07,22,12,46,22.50
2009,07,22,12,47,22.40
2009,07,22,12,48,22.20
2009,07,22,12,49,22.20
2009,07,22,12,50,22.20
2009,07,22,12,51,22.20
2009,07,22,12,52,22.20
2009,07,22,12,53,22.30
2009,07,22,12,54,22.20
2009,07,22,12,55,22.10
2009,07,22,12,56,22.10
2009,07,22,12,57,22.10
2009,07,22,12,58,22.20
2009,07,22,12,59,22.10
2009,07,22,13,00,22.10
2009,07,22,13,01,22.10
2009,07,22,13,02,22.00
2009,07,22,13,03,22.10
2009,07,22,13,04,22.30
2009,07,22,13,05,22.30
2009,07,22,13,06,22.40
2009,07,22,13,07,22.40
2009,07,22,13,08,22.40
2009,07,22,13,09,22.50
2009,07,22,13,10,22.50
2009,07,22,13,11,22.60
2009,07,22,13,12,22.60
2009,07,22,13,13,22.60
2009,07,22,13,14,22.70
2009,07,22,13,15,22.80
2009,07,22,13,16,22.90
2009,07,22,13,17,22.90
2009,07,22,13,18,22.80
2009,07,22,13,19,22.80
2009,07,22,13,20,22.70
2009,07,22,13,21,22.60
2009,07,22,13,22,22.50
2009,07,22,13,23,22.30
2009,07,22,13,24,22.30
2009,07,22,13,25,22.30
2009,07,22,13,26,22.40
2009,07,22,13,27,22.50
2009,07,22,13,28,22.50
2009,07,22,13,29,22.50
2009,07,22,13,30,22.50
2009,07,22,13,31,22.60
2009,07,22,13,32,22.60
2009,07,22,13,33,22.70
2009,07,22,13,34,22.70
2009,07,22,13,35,22.70
2009,07,22,13,36,22.70
2009,07,22,13,37,22.70
2009,07,22,13,38,22.80
2009,07,22,13,39,22.80
2009,07,22,13,40,22.70
2009,07,22,13,41,22.70
2009,07,22,13,42,22.80
2009,07,22,13,43,22.80
2009,07,22,13,44,22.80
2009,07,22,13,45,22.80
2009,07,22,13,46,22.80
2009,07,22,13,47,22.80
2009,07,22,13,48,22.80
2009,07,22,13,49,22.70
2009,07,22,13,50,22.70
2009,07,22,13,51,22.60
2009,07,22,13,52,22.60
2009,07,22,13,53,22.60
2009,07,22,13,54,22.70
2009,07,22,13,55,22.80
2009,07,22,13,56,22.80
2009,07,22,13,57,22.70
2009,07,22,13,58,22.70
2009,07,22,13,59,22.80
2009,07,22,14,00,22.90
2009,07,22,14,01,23.00
2009,07,22,14,02,23.10
2009,07,22,14,03,23.30
2009,07,22,14,04,23.20
2009,07,22,14,05,23.20
2009,07,22,14,06,23.10
2009,07,22,14,07,23.10
2009,07,22,14,08,23.00
2009,07,22,14,09,22.80
2009,07,22,14,10,22.90
2009,07,22,14,11,22.90
2009,07,22,14,12,22.90
2009,07,22,14,13,23.00
2009,07,22,14,14,23.10
2009,07,22,14,15,23.20
2009,07,22,14,16,23.30
2009,07,22,14,17,23.50
2009,07,22,14,18,23.60
2009,07,22,14,19,23.80
2009,07,22,14,20,23.80
2009,07,22,14,21,24.00
2009,07,22,14,22,23.90
2009,07,22,14,23,23.70
2009,07,22,14,24,23.70
2009,07,22,14,25,23.60
2009,07,22,14,26,23.50
2009,07,22,14,27,23.40
2009,07,22,14,28,23.30
2009,07,22,14,29,23.30
2009,07,22,14,30,23.30
2009,07,22,14,31,23.30
2009,07,22,14,32,23.30
2009,07,22,14,33,23.30
2009,07,22,14,34,23.40
2009,07,22,14,35,23.40
2009,07,22,14,36,23.30
2009,07,22,14,37,23.20
2009,07,22,14,38,23.20
2009,07,22,14,39,23.20
2009,07,22,14,40,23.20
2009,07,22,14,41,23.20
2009,07,22,14,42,23.10
2009,07,22,14,43,23.10
2009,07,22,14,44,23.20
2009,07,22,14,45,23.20
2009,07,22,14,46,23.20
2009,07,22,14,47,23.20
2009,07,22,14,48,23.20
2009,07,22,14,49,23.30
2009,07,22,14,50,23.30
2009,07,22,14,51,23.30
2009,07,22,14,52,23.20
2009,07,22,14,53,23.30
2009,07,22,14,54,23.30
2009,07,22,14,55,23.30
2009,07,22,14,56,23.30
2009,07,22,14,57,23.30
2009,07,22,14,58,23.30
2009,07,22,14,59,23.30
2009,07,22,15,00,23.30
2009,07,22,15,01,23.30
2009,07,22,15,02,23.30
2009,07,22,15,03,23.30
2009,07,22,15,04,23.30
2009,07,22,15,05,23.30
2009,07,22,15,06,23.40
2009,07,22,15,07,23.50
2009,07,22,15,08,23.60
2009,07,22,15,09,23.70
2009,07,22,15,10,23.60
2009,07,22,15,11,23.60
2009,07,22,15,12,23.70
2009,07,22,15,13,23.70
2009,07,22,15,14,23.70
2009,07,22,15,15,23.60
2009,07,22,15,16,23.50
2009,07,22,15,17,23.50
2009,07,22,15,18,23.60
2009,07,22,15,19,23.60
2009,07,22,15,20,23.70
2009,07,22,15,21,23.70
2009,07,22,15,22,23.80
2009,07,22,15,23,23.90
2009,07,22,15,24,23.90
2009,07,22,15,25,23.80
2009,07,22,15,26,23.80
2009,07,22,15,27,23.70
2009,07,22,15,28,23.60
2009,07,22,15,29,23.50
2009,07,22,15,30,23.60
2009,07,22,15,31,23.60
2009,07,22,15,32,23.70
2009,07,22,15,33,23.80
2009,07,22,15,34,23.80
2009,07,22,15,35,23.90
2009,07,22,15,36,24.00
2009,07,22,15,37,24.10
2009,07,22,15,38,24.10
2009,07,22,15,39,24.00
2009,07,22,15,40,23.90
2009,07,22,15,41,23.80
2009,07,22,15,42,23.80
2009,07,22,15,43,23.80
2009,07,22,15,44,23.80
2009,07,22,15,45,23.80
2009,07,22,15,46,23.80
2009,07,22,15,47,23.90
2009,07,22,15,48,24.00
2009,07,22,15,49,24.00
2009,07,22,15,50,24.00
2009,07,22,15,51,24.00
2009,07,22,15,52,23.90
2009,07,22,15,53,23.90
2009,07,22,15,54,23.90
2009,07,22,15,55,23.90
2009,07,22,15,56,23.90
2009,07,22,15,57,24.00
2009,07,22,15,58,24.10
2009,07,22,15,59,24.20
2009,07,22,16,00,24.20
2009,07,22,16,01,24.20
2009,07,22,16,02,24.20
2009,07,22,16,03,24.20
2009,07,22,16,04,24.10
2009,07,22,16,05,24.00
2009,07,22,16,06,24.00
2009,07,22,16,07,24.10
2009,07,22,16,08,24.10
2009,07,22,16,09,24.20
2009,07,22,16,10,24.10
2009,07,22,16,11,24.00
2009,07,22,16,12,23.90
2009,07,22,16,13,24.00
2009,07,22,16,14,24.00
2009,07,22,16,15,24.00
2009,07,22,16,16,24.10
2009,07,22,16,17,24.10
2009,07,22,16,18,24.00
2009,07,22,16,19,23.90
2009,07,22,16,20,23.80
2009,07,22,16,21,23.80
2009,07,22,16,22,23.80
2009,07,22,16,23,23.80
2009,07,22,16,24,23.80
2009,07,22,16,25,23.90
2009,07,22,16,26,23.90
2009,07,22,16,27,24.00
2009,07,22,16,28,24.10
2009,07,22,16,29,24.20
2009,07,22,16,30,24.20
2009,07,22,16,31,24.20
2009,07,22,16,32,24.20
2009,07,22,16,33,24.20
2009,07,22,16,34,24.30
2009,07,22,16,35,24.40
2009,07,22,16,36,24.40
2009,07,22,16,37,24.40
2009,07,22,16,38,24.30
2009,07,22,16,39,24.20
2009,07,22,16,40,24.10
2009,07,22,16,41,24.10
2009,07,22,16,42,24.10
2009,07,22,16,43,24.10
2009,07,22,16,44,24.10
2009,07,22,16,45,24.10
2009,07,22,16,46,24.10
2009,07,22,16,47,24.10
2009,07,22,16,48,24.10
2009,07,22,16,49,24.10
2009,07,22,16,50,24.10
2009,07,22,16,51,24.10
2009,07,22,16,52,24.00
2009,07,22,16,53,24.00
2009,07,22,16,54,24.10
2009,07,22,16,55,24.00
2009,07,22,16,56,23.90
2009,07,22,16,57,23.80
2009,07,22,16,58,23.80
2009,07,22,16,59,23.70
2009,07,22,17,00,23.80
2009,07,22,17,01,23.80
2009,07,22,17,02,23.80
2009,07,22,17,03,23.80
2009,07,22,17,04,23.70
2009,07,22,17,05,23.60
2009,07,22,17,06,23.50
2009,07,22,17,07,23.50
2009,07,22,17,08,23.60
2009,07,22,17,09,23.60
2009,07,22,17,10,23.60
2009,07,22,17,11,23.70
2009,07,22,17,12,23.70
2009,07,22,17,13,23.70
2009,07,22,17,14,23.70
2009,07,22,17,15,23.70
2009,07,22,17,16,23.80
2009,07,22,17,17,23.80
2009,07,22,17,18,23.80
2009,07,22,17,19,23.70